📊 Raw Sensor Data
Showing records 36151 to 36175 of 84,890 total
| ID | Distance (ft) | Battery V | Battery A | Int Temp (°F) | Int Humid (%) | Ext Temp (°F) | Solar V | RSSI | SNR | Time Stamp |
|---|---|---|---|---|---|---|---|---|---|---|
| 48752 | 15.1 | 3.92 | -5 | 66 | 47 | 68 | 0.00 | -69 | 8 | 08/10/2025 12:00 AM |
| 48751 | 15.1 | 3.82 | -5 | 67 | 47 | 68 | 0.00 | -68 | 7 | 08/09/2025 11:45 PM |
| 48750 | 15.1 | 3.82 | -5 | 68 | 47 | 69 | 0.00 | -70 | 8 | 08/09/2025 11:30 PM |
| 48749 | 15.1 | 3.92 | -5 | 69 | 47 | 70 | 0.00 | -69 | 8 | 08/09/2025 11:15 PM |
| 48748 | 15.1 | 3.82 | -5 | 70 | 47 | 71 | 0.00 | -70 | 8 | 08/09/2025 11:00 PM |
| 48747 | 15.1 | 3.92 | -5 | 70 | 47 | 71 | 0.00 | -70 | 8 | 08/09/2025 10:45 PM |
| 48746 | 15.1 | 3.92 | -5 | 70 | 48 | 71 | 0.00 | -69 | 8 | 08/09/2025 10:30 PM |
| 48745 | 15.1 | 3.82 | -5 | 71 | 48 | 72 | 0.00 | -69 | 8 | 08/09/2025 10:15 PM |
| 48744 | 15.1 | 3.82 | -5 | 72 | 49 | 72 | 0.10 | -70 | 8 | 08/09/2025 10:00 PM |
| 48743 | 15.1 | 3.82 | -5 | 73 | 49 | 73 | 0.00 | -70 | 8 | 08/09/2025 09:45 PM |
| 48742 | 15.1 | 3.82 | -5 | 73 | 50 | 74 | 0.00 | -70 | 8 | 08/09/2025 09:30 PM |
| 48741 | 15.1 | 3.82 | -5 | 75 | 51 | 75 | 0.00 | -70 | 8 | 08/09/2025 09:15 PM |
| 48740 | 15.1 | 3.92 | -5 | 76 | 53 | 75 | 0.00 | -71 | 8 | 08/09/2025 09:00 PM |
| 48739 | 15.1 | 3.83 | -5 | 77 | 54 | 77 | 0.00 | -70 | 8 | 08/09/2025 08:45 PM |
| 48738 | 15.1 | 3.82 | -5 | 79 | 56 | 78 | 0.00 | -70 | 8 | 08/09/2025 08:30 PM |
| 48737 | 15.1 | 3.91 | -9 | 82 | 58 | 79 | 1.80 | -69 | 8 | 08/09/2025 08:15 PM |
| 48736 | 15.1 | 3.83 | -5 | 87 | 58 | 82 | 4.50 | -71 | 8 | 08/09/2025 08:00 PM |
| 48735 | 15.2 | 3.95 | 0 | 93 | 57 | 86 | 4.50 | -71 | 7 | 08/09/2025 07:45 PM |
| 48734 | 15.2 | 3.96 | 0 | 98 | 56 | 90 | 4.60 | -71 | 7 | 08/09/2025 07:30 PM |
| 48733 | 15.3 | 3.88 | 8 | 101 | 55 | 91 | 4.60 | -71 | 7 | 08/09/2025 07:15 PM |
| 48732 | 15.3 | 3.93 | 20 | 105 | 54 | 95 | 4.60 | -69 | 8 | 08/09/2025 07:00 PM |
| 48731 | 15.3 | 3.99 | 32 | 107 | 54 | 99 | 4.50 | -71 | 8 | 08/09/2025 06:45 PM |
| 48730 | 15.3 | 3.92 | 0 | 109 | 53 | 100 | 5.10 | -70 | 8 | 08/09/2025 06:30 PM |
| 48729 | 15.3 | 3.92 | 0 | 112 | 52 | 102 | 5.10 | -71 | 7 | 08/09/2025 06:15 PM |
| 48728 | 15.3 | 3.92 | 0 | 114 | 51 | 104 | 5.10 | -71 | 7 | 08/09/2025 06:00 PM |